Miscellaneous Local Product
Issued by NWS Hastings, NE

Home | Current Version | Previous Version | Graphics & Text | Print | Product List | Glossary On
Versions: 1 2 3 4 5 6 7 8 9 10 11 12 13 14 15 16 17 18 19 20 21 22 23 24 25 26 27 28 29 30 31 32 33 34 35 36 37 38 39 40 41 42 43 44 45 46 47 48 49 50
000
AXUS43 KGID 250702
MISGRI

GID CWA HOURLY WEATHER ROUNDUP
NATIONAL WEATHER SERVICE HASTINGS NE
200 AM CDT SAT APR 25 2015

NOTE: "FAIR" INDICATES FEW OR NO CLOUDS BELOW 12,000 FEET WITH NO
SIGNIFICANT WEATHER AND/OR OBSTRUCTIONS TO VISIBILITY.

...SOUTH CENTRAL NEBRASKA...

CITY           SKY/WX    TMP DP  RH WIND       PRES   REMARKS
GRAND ISLAND   LGT RAIN  55  54  96 NE3       29.50R FOG
HASTINGS       TSTM      55  55 100 CALM      29.49S FOG
KEARNEY        CLOUDY    55  54  94 NW9       29.53R
ORD            CLOUDY    56  51  84 N6        29.50F
YORK           CLOUDY    55  54  94 NE13      29.47F FOG
AURORA         TSTM      55  55 100 NE12      29.48F
LEXINGTON      CLOUDY    56  53  89 NW5       29.52F
HOLDREGE       CLOUDY    55  54  95 W7        29.50S
HEBRON         CLOUDY    56  54  94 NW9       29.44R FOG

...NEBRASKA PANHANDLE...

CITY           SKY/WX    TMP DP  RH WIND       PRES   REMARKS
CHADRON        PTCLDY    44  41  89 CALM      29.64R
ALLIANCE       PTCLDY    41  39  93 N6        29.62R
SCOTTSBLUFF    PTCLDY    43  40  89 W6        29.64S
SIDNEY         MOCLDY    44  38  79 N8        29.64S

...WESTERN AND NORTH CENTRAL NEBRASKA...

CITY           SKY/WX    TMP DP  RH WIND       PRES   REMARKS
VALENTINE      CLOUDY    58  44  60 E16G24    29.55R
AINSWORTH      CLOUDY    55  47  76 E6        29.56R
ONEILL         RAIN      55  52  87 E17G23    29.57S
BROKEN BOW     CLOUDY    54  47  77 SE5       29.52R
IMPERIAL       CLOUDY    50  43  77 W7        29.60R
NORTH PLATTE   NOT AVBL
MCCOOK         CLOUDY    54  47  77 N5        29.55R

...EASTERN NEBRASKA...

CITY           SKY/WX    TMP DP  RH WIND       PRES   REMARKS
NORFOLK        CLOUDY    57  52  83 E9        29.51F
SO SIOUX CITY  CLOUDY    54  47  77 E14       29.57S
TEKAMAH        CLOUDY    53  51  93 NE13      29.52F FOG
COLUMBUS       CLOUDY    54  48  82 E14       29.51F
ALBION         CLOUDY    56  52  85 E8        29.51R
OMAHA EPPLEY   TSTM      57  54  89 E7        29.50F
OFFUTT AFB     RAIN      56  54  92 NE10      29.48F
MILLARD        CLOUDY    58  53  85 E5        29.50F
LINCOLN        LGT RAIN  55  53  93 NE15      29.43F FOG
NEBRASKA CITY  CLOUDY    56  55  95 E8        29.45F
BEATRICE       LGT RAIN  57  55  94 E6        29.41S
FALLS CITY     RAIN      57  56  96 E15       29.44F

...NORTHERN KANSAS...

CITY           SKY/WX    TMP DP  RH WIND       PRES   REMARKS
GOODLAND       CLOUDY    50  42  74 NW14      29.62R
HILL CITY      CLOUDY    55  51  86 W6        29.54R
NORTON         HVY RAIN  54  48  82 N17G24    29.56R
HAYS           CLOUDY    54  46  76 W3        29.51F
RUSSELL        LGT RAIN  55  54  96 SW5       29.49S
CONCORDIA      CLOUDY    56  52  86 W9        29.41F
SALINA         LGT RAIN  56  53  90 SW8       29.45F
TOPEKA         RAIN      62  57  83 SW6       29.46F



USA.gov is the U.S. government's official web portal to all federal, state and local government web resources and services.